Ypsilanti, MI

1:48 AM EDT on April 23, 2017 (GMT -0400)
Willow Run

Weather History for KYIP - November, 2012

Change the Weather History Date:

Tuesday, November 27, 2012

  Actual Average Record
Temperature  
Mean Temperature 30 °F -  
Max Temperature 37 °F 43 °F 66 °F (1990)
Min Temperature 23 °F 31 °F 12 °F (1977)
Degree Days  
Heating Degree Days 35    
Moisture  
Dew Point 16 °F    
Average Humidity 58    
Maximum Humidity 69    
Minimum Humidity 41    
Precipitation  
Precipitation 0.00 in - - ()
Sea Level Pressure  
Sea Level Pressure 30.32 in    
Wind  
Wind Speed 6 mph (West)    
Max Wind Speed 8 mph    
Max Gust Speed -    
Visibility 10 miles    
Events      
Averages and records for this station are not official NWS values.
T = Trace of Precipitation, MM = Missing Value Source: NWS Daily Summary

Daily Weather History Graph

Daily Weather History Graph

Search for Another Location

Airport or City:

Trip Planner

Search our weather history database for the weather conditions in past years. The results will help you decide how hot, cold, wet, or windy it might be!

Date:

Astronomy

Nov. 27, 2012 Rise Set
Actual Time 7:39 AM EST 5:04 PM EST
Civil Twilight 7:08 AM EST 5:35 PM EST
Nautical Twilight 6:33 AM EST 6:09 PM EST
Astronomical Twilight 6:00 AM EST 6:43 PM EST
Moon 4:35 PM EST (11/27) 6:43 AM EST (11/27)
Length of Visible Light 10h 26m
Length of Day
9h 24m
Waxing Gibbous, 99% of the Moon is Illuminated
Nov 27
Waxing Gibbous
Nov 28
Full
Dec 6
Last Quarter
Dec 13
New
Dec 20
First Quarter

Hourly Weather History & Observations

Time (EST) Temp. Windchill Dew Point Humidity Pressure Visibility Wind Dir Wind Speed Gust Speed Precip Events Conditions
12:53 AM 33.1 °F 27.7 °F 19.9 °F 59% 30.30 in 10.0 mi NW 5.8 mph - N/A   Overcast
1:53 AM 32.0 °F 25.6 °F 18.0 °F 56% 30.30 in 10.0 mi WNW 6.9 mph - N/A   Overcast
2:53 AM 28.0 °F 20.0 °F 17.1 °F 63% 30.32 in 10.0 mi NW 8.1 mph - N/A   Scattered Clouds
3:53 AM 26.1 °F 20.5 °F 15.1 °F 63% 30.30 in 10.0 mi NW 4.6 mph - N/A   Clear
4:53 AM 26.1 °F 19.4 °F 15.1 °F 63% 30.31 in 10.0 mi NW 5.8 mph - N/A   Clear
5:53 AM 24.1 °F 17.0 °F 14.0 °F 65% 30.32 in 10.0 mi NNW 5.8 mph - N/A   Clear
6:53 AM 23.0 °F 17.0 °F 14.0 °F 68% 30.34 in 10.0 mi NW 4.6 mph - N/A   Clear
7:53 AM 23.0 °F 18.4 °F 14.0 °F 68% 30.36 in 10.0 mi NNW 3.5 mph - N/A   Clear
8:53 AM 28.0 °F - 18.0 °F 66% 30.37 in 10.0 mi Calm Calm - N/A   Clear
9:53 AM 30.9 °F 26.2 °F 18.0 °F 59% 30.37 in 10.0 mi North 4.6 mph - N/A   Clear
10:53 AM 33.1 °F 28.7 °F 18.0 °F 54% 30.38 in 10.0 mi Variable 4.6 mph - N/A   Clear
11:53 AM 34.0 °F 31.0 °F 17.1 °F 50% 30.37 in 10.0 mi Variable 3.5 mph - N/A   Clear
12:53 PM 36.0 °F 32.1 °F 15.1 °F 43% 30.34 in 10.0 mi SSW 4.6 mph - N/A   Clear
1:53 PM 37.9 °F 33.5 °F 16.0 °F 41% 30.32 in 10.0 mi Variable 5.8 mph - N/A   Clear
2:53 PM 37.0 °F 31.6 °F 16.0 °F 42% 30.30 in 10.0 mi SW 6.9 mph - N/A   Clear
3:53 PM 36.0 °F 32.1 °F 15.1 °F 43% 30.30 in 10.0 mi West 4.6 mph - N/A   Clear
4:53 PM 33.1 °F 26.9 °F 15.1 °F 48% 30.29 in 10.0 mi NW 6.9 mph - N/A   Clear
5:53 PM 32.0 °F 27.5 °F 15.1 °F 50% 30.29 in 10.0 mi SW 4.6 mph - N/A   Clear
6:53 PM 28.0 °F 22.8 °F 16.0 °F 61% 30.30 in 10.0 mi SSW 4.6 mph - N/A   Clear
7:53 PM 26.1 °F 18.4 °F 16.0 °F 66% 30.30 in 10.0 mi SSW 6.9 mph - N/A   Clear
8:53 PM 26.1 °F 18.4 °F 17.1 °F 69% 30.29 in 10.0 mi South 6.9 mph - N/A   Clear
9:53 PM 24.1 °F 17.0 °F 15.1 °F 69% 30.29 in 10.0 mi SSW 5.8 mph - N/A   Clear
10:53 PM 26.1 °F 18.4 °F 16.0 °F 66% 30.28 in 10.0 mi SW 6.9 mph - N/A   Clear
11:53 PM 25.0 °F 17.1 °F 16.0 °F 69% 30.27 in 10.0 mi SSW 6.9 mph - N/A   Clear